This is the latest recevied weather packets stored in our database for station/object IZ3MEZ-13. If no packets are shown the sender has not sent any weather packets the latest 10 day(s).
| Time | Temp. | Humidity | Pressure | Rain* | Wind** | Luminosity | Snow |
|---|---|---|---|---|---|---|---|
| 1777701328 | 11.67° C | 68% | 1027.7 hPa | 0 mm | - | 28 W/m² | - |
| 1777700721 | 11.11° C | 70% | 1027.6 hPa | 0 mm | - | 26 W/m² | - |
| 1777700118 | 10.56° C | 71% | 1027.8 hPa | 0 mm | - | 24 W/m² | - |
| 1777699520 | 9.44° C | 73% | 1027.7 hPa | 0 mm | - | 21 W/m² | - |
| 1777698923 | 9.44° C | 74% | 1027.7 hPa | 0 mm | - | 18 W/m² | - |
| 1777698320 | 8.89° C | 74% | 1027.7 hPa | 0 mm | - | 16 W/m² | - |
| 1777697716 | 8.89° C | 75% | 1027.7 hPa | 0 mm | - | 13 W/m² | - |
| 1777697123 | 8.33° C | 76% | 1027.7 hPa | 0 mm | - | 10 W/m² | - |
| 1777696516 | 7.78° C | 77% | 1027.6 hPa | 0 mm | - | 7 W/m² | - |
| 1777695935 | 7.78° C | 78% | 1027.7 hPa | 0 mm | - | 4 W/m² | - |
| 1777695317 | 7.22° C | 79% | 1027.7 hPa | 0 mm | - | 1 W/m² | - |
| 1777694722 | 7.22° C | 79% | 1027.5 hPa | 0 mm | - | 0 W/m² | - |
| 1777694121 | 6.67° C | 80% | 1027.5 hPa | 0 mm | - | 0 W/m² | - |
| 1777693518 | 6.67° C | 79% | 1027.6 hPa | 0 mm | - | 0 W/m² | - |
| 1777692924 | 6.67° C | 78% | 1027.5 hPa | 0 mm | - | 0 W/m² | - |
| 1777692331 | 6.67° C | 78% | 1027.5 hPa | 0 mm | - | 0 W/m² | - |
| 1777691716 | 6.67° C | 78% | 1027.6 hPa | 0 mm | - | 0 W/m² | - |
| 1777691121 | 6.67° C | 78% | 1027.7 hPa | 0 mm | - | 0 W/m² | - |
| 1777690517 | 6.67° C | 77% | 1027.7 hPa | 0 mm | - | 0 W/m² | - |
| 1777689922 | 7.22° C | 77% | 1027.8 hPa | 0 mm | - | 0 W/m² | - |
| 1777689319 | 7.22° C | 78% | 1027.8 hPa | 0 mm | - | 0 W/m² | - |
| 1777688718 | 6.67° C | 77% | 1027.6 hPa | 0 mm | - | 0 W/m² | - |
| 1777688122 | 6.67° C | 77% | 1027.7 hPa | 0 mm | - | 0 W/m² | - |
| 1777687517 | 6.67° C | 77% | 1027.5 hPa | 0 mm | - | 0 W/m² | - |
| 1777686916 | 6.67° C | 77% | 1027.5 hPa | 0 mm | - | 0 W/m² | - |
* Rain latest hour (hover to see other rain measurements)
** Current wind speed in m/s (hover to see current wind gust speed)